Estación de Peldehue

Ultimos registro cada 15 minutos 82
Estación Fecha / Hora Temperatura Humedad Lluvia Velocidad Dirección Radiación Presion
82 Peldehue 03-05-2026 20:15 16,4 32 0 0 185 0,6 936,9
81 Peldehue 03-05-2026 20:00 16,7 30,3 0 0 185 0,6 936,9
80 Peldehue 03-05-2026 19:45 17,4 30,5 0 0 185 0,6 936,7
79 Peldehue 03-05-2026 19:30 17,5 31,8 0 0 185 0,6 936,5
78 Peldehue 03-05-2026 19:15 18,1 30,4 0 0 185 0,6 936,4
77 Peldehue 03-05-2026 19:00 18,8 28,1 0 0 185 0,6 936,5
76 Peldehue 03-05-2026 18:45 19,7 25,6 0 0 204 0,6 936,4
75 Peldehue 03-05-2026 18:30 18,8 26,1 0 0 223 0,6 936,4
74 Peldehue 03-05-2026 18:15 20,4 22,7 0 1 222 1,9 936,2
73 Peldehue 03-05-2026 18:00 20,9 22,9 0 1 223 9,4 936,1
72 Peldehue 03-05-2026 17:45 21,7 22,5 0 1,5 227 34,4 936
71 Peldehue 03-05-2026 17:30 22,4 21,4 0 1,5 223 61,9 935,9
70 Peldehue 03-05-2026 17:15 23 25 0 1,5 230 88,1 935,8
69 Peldehue 03-05-2026 17:00 23,1 25,3 0 1,5 234 98,1 935,6
68 Peldehue 03-05-2026 16:45 23,3 26,3 0 1,5 233 118,1 935,5
67 Peldehue 03-05-2026 16:30 23,7 27,8 0 1,5 236 119,4 935,4
66 Peldehue 03-05-2026 16:15 24,5 27,9 0 1,5 233 180,6 935,4
65 Peldehue 03-05-2026 16:00 25 28,3 0 2 234 431,9 935,3
64 Peldehue 03-05-2026 15:45 25,8 27,4 0 1,5 233 456,9 935,5
63 Peldehue 03-05-2026 15:30 25,3 27,5 0 1,5 234 446,9 935,5
62 Peldehue 03-05-2026 15:15 25,8 27,2 0 2 240 453,1 935,6
61 Peldehue 03-05-2026 15:00 25,7 26,5 0 2 239 493,1 935,6
60 Peldehue 03-05-2026 14:45 26 25,7 0 2 241 540,6 935,5
59 Peldehue 03-05-2026 14:30 26 25,7 0 1 234 585,6 935,5
58 Peldehue 03-05-2026 14:15 26 26 0 0,5 250 594,4 935,4
57 Peldehue 03-05-2026 14:00 25,5 28,1 0 0,5 237 609,4 935,5
56 Peldehue 03-05-2026 13:45 25,9 26,6 0 1 240 620,6 935,7
55 Peldehue 03-05-2026 13:30 25,3 27,1 0 1 234 636,9 935,9
54 Peldehue 03-05-2026 13:15 25,3 28,3 0 1 230 646,9 936,2
53 Peldehue 03-05-2026 13:00 25,6 28,1 0 1 232 679,4 936,2
52 Peldehue 03-05-2026 12:45 24,2 31,6 0 1,5 239 673,1 936,1
51 Peldehue 03-05-2026 12:30 24,2 31,3 0 1 232 648,1 936,3
50 Peldehue 03-05-2026 12:15 24,5 30,6 0 0,5 232 644,4 936,4
49 Peldehue 03-05-2026 12:00 24,4 30,9 0 0 205 634,4 936,2
48 Peldehue 03-05-2026 11:45 24 31,9 0 0 234 620,6 936,5
47 Peldehue 03-05-2026 11:30 23,2 32,8 0 0 234 599,4 936,8
46 Peldehue 03-05-2026 11:15 23,3 33,5 0 0 208 586,9 936,6
45 Peldehue 03-05-2026 11:00 22,2 35,4 0 0 205 560,6 936,6
44 Peldehue 03-05-2026 10:45 20,9 38 0 0 229 531,9 936,9
43 Peldehue 03-05-2026 10:30 22,8 35,9 0 0 246 499,4 937,2
42 Peldehue 03-05-2026 10:15 20,8 38,2 0 0 216 466,9 937
41 Peldehue 03-05-2026 10:00 21,2 34 0 0 205 431,9 936,6
40 Peldehue 03-05-2026 09:45 19 39,4 0 0 206 393,1 936,8
39 Peldehue 03-05-2026 09:30 19,5 40,6 0 0 209 350,6 937
38 Peldehue 03-05-2026 09:15 17,2 43,4 0 0 205 310,6 936,8
37 Peldehue 03-05-2026 09:00 17,1 43,3 0 0 205 268,1 936,5
36 Peldehue 03-05-2026 08:45 15,6 50,6 0 0 205 219,4 936,5
35 Peldehue 03-05-2026 08:30 13,5 53,8 0 0 205 174,4 936,1
34 Peldehue 03-05-2026 08:15 10,2 62,7 0 0 205 130,6 935,5
33 Peldehue 03-05-2026 08:00 8,7 66,6 0 0 205 20,6 935,7
32 Peldehue 03-05-2026 07:45 8,3 65,7 0 0 205 10,6 935,3
31 Peldehue 03-05-2026 07:30 7,9 67,7 0 0 205 6,9 934,9
30 Peldehue 03-05-2026 07:15 7,7 67,2 0 0 205 1,9 934,9
29 Peldehue 03-05-2026 07:00 9 62,8 0 0 205 0,6 934,9
28 Peldehue 03-05-2026 06:45 8,7 64,2 0 0 205 0,6 934,9
27 Peldehue 03-05-2026 06:30 8,7 63,8 0 0 205 0,6 935
26 Peldehue 03-05-2026 06:15 8,7 65,3 0 0 205 0,6 935,1
25 Peldehue 03-05-2026 06:00 8,4 66,3 0 0 205 0,6 935
24 Peldehue 03-05-2026 05:45 8,7 64,4 0 0 205 0,6 935
23 Peldehue 03-05-2026 05:30 8,7 66 0 0 205 0,6 935,2
22 Peldehue 03-05-2026 05:15 8,6 67,1 0 0 205 0,6 935
21 Peldehue 03-05-2026 05:00 8,2 68,8 0 0 205 0,6 935,1
20 Peldehue 03-05-2026 04:45 8,4 66,3 0 0 205 0,6 935,3
19 Peldehue 03-05-2026 04:30 10,5 61,8 0 0 205 0,6 935,3
18 Peldehue 03-05-2026 04:15 9,4 64,5 0 0 206 0,6 935,6
17 Peldehue 03-05-2026 04:00 9 65,3 0 0 209 0,6 935,8
16 Peldehue 03-05-2026 03:45 9,4 62,8 0 0 206 0,6 935,6
15 Peldehue 03-05-2026 03:30 9,8 62,7 0 0 205 0,6 935,7
14 Peldehue 03-05-2026 03:15 10,3 61,2 0 0 205 0,6 935,8
13 Peldehue 03-05-2026 03:00 9,7 62,6 0 0 205 0,6 935,6
12 Peldehue 03-05-2026 02:45 10,4 62,1 0 0 205 0,6 935,5
11 Peldehue 03-05-2026 02:30 10,7 59,4 0 0,5 206 0,6 935,9
10 Peldehue 03-05-2026 02:15 10,8 58,7 0 0 206 0,6 935,8
9 Peldehue 03-05-2026 02:00 10,9 60,6 0 0 206 0,6 935,5
8 Peldehue 03-05-2026 01:45 10,4 62,1 0 0 206 0,6 935,3
7 Peldehue 03-05-2026 01:30 11,4 58,4 0 0 206 0,6 935,5
6 Peldehue 03-05-2026 01:15 12,3 56,4 0 0,5 206 0,6 935,9
5 Peldehue 03-05-2026 01:00 11,5 57,7 0 0 206 0,6 936,1
4 Peldehue 03-05-2026 00:45 11,3 58,1 0 0 206 0,6 936,3
3 Peldehue 03-05-2026 00:30 12,3 56,6 0 0 206 0,6 936,3
2 Peldehue 03-05-2026 00:15 12,2 56,3 0 0 206 0,6 936,1
1 Peldehue 03-05-2026 00:00 11,6 57,7 0 0 206 0,6 936